TimeMST,TemperatureF,Dew PointF,Humidity,Sea Level PressureIn,VisibilityMPH,Wind Direction,Wind SpeedMPH,Gust SpeedMPH,PrecipitationIn,Events,Conditions,WindDirDegrees,DateUTC
12:57 AM,66.9,43.0,42,29.84,10.0,WNW,4.6,-,N/A,,Scattered Clouds,290,2013-05-06 07:57:00
1:57 AM,64.9,44.1,47,29.84,10.0,WNW,5.8,-,N/A,,Partly Cloudy,300,2013-05-06 08:57:00
2:57 AM,64.9,43.0,45,29.84,10.0,NNW,10.4,-,N/A,,Partly Cloudy,330,2013-05-06 09:57:00
3:57 AM,64.9,44.1,47,29.86,10.0,NNW,9.2,-,N/A,,Partly Cloudy,330,2013-05-06 10:57:00
4:57 AM,64.0,46.0,52,29.87,10.0,NNW,6.9,-,N/A,,Partly Cloudy,340,2013-05-06 11:57:00
5:57 AM,64.0,46.0,52,29.90,10.0,NNW,10.4,-,N/A,,Partly Cloudy,340,2013-05-06 12:57:00
6:57 AM,66.9,45.0,45,29.91,10.0,NNW,8.1,-,N/A,,Partly Cloudy,330,2013-05-06 13:57:00
7:57 AM,70.0,45.0,41,29.93,10.0,NNW,6.9,-,N/A,,Partly Cloudy,340,2013-05-06 14:57:00
8:57 AM,72.0,46.0,40,29.95,10.0,West,9.2,-,N/A,,Partly Cloudy,270,2013-05-06 15:57:00
9:57 AM,73.9,46.0,37,29.96,10.0,Variable,5.8,-,N/A,,Partly Cloudy,0,2013-05-06 16:57:00
10:57 AM,75.0,44.1,33,29.96,10.0,Variable,4.6,-,N/A,,Scattered Clouds,0,2013-05-06 17:57:00
11:57 AM,77.0,43.0,30,29.95,10.0,South,6.9,-,N/A,,Partly Cloudy,190,2013-05-06 18:57:00
12:57 PM,79.0,43.0,28,29.93,10.0,Variable,3.5,-,N/A,,Partly Cloudy,0,2013-05-06 19:57:00
1:57 PM,82.9,42.1,24,29.91,10.0,SW,11.5,-,N/A,,Partly Cloudy,220,2013-05-06 20:57:00
2:57 PM,82.9,43.0,24,29.88,10.0,WNW,10.4,18.4,N/A,,Partly Cloudy,300,2013-05-06 21:57:00
3:57 PM,84.0,42.1,23,29.86,10.0,West,5.8,-,N/A,,Partly Cloudy,270,2013-05-06 22:57:00
4:57 PM,84.0,43.0,24,29.85,10.0,Variable,4.6,-,N/A,,Partly Cloudy,0,2013-05-06 23:57:00
5:57 PM,84.0,41.0,22,29.84,10.0,West,9.2,-,N/A,,Scattered Clouds,260,2013-05-07 00:57:00
6:57 PM,79.0,44.1,29,29.85,10.0,WNW,17.3,24.2,N/A,,Partly Cloudy,300,2013-05-07 01:57:00
7:57 PM,73.0,45.0,37,29.88,10.0,NW,18.4,26.5,N/A,,Partly Cloudy,310,2013-05-07 02:57:00
8:57 PM,71.1,44.1,38,29.89,10.0,NW,17.3,27.6,N/A,,Partly Cloudy,310,2013-05-07 03:57:00
9:57 PM,70.0,44.1,39,29.91,10.0,NW,15.0,24.2,N/A,,Partly Cloudy,320,2013-05-07 04:57:00
10:57 PM,68.0,43.0,40,29.91,10.0,NW,18.4,25.3,N/A,,Clear,310,2013-05-07 05:57:00
11:57 PM,68.0,42.1,39,29.92,10.0,NW,17.3,-,N/A,,Partly Cloudy,320,2013-05-07 06:57:00